Location: Shepherdstown, WV
(39.4326°N, 77.8042°W)
Time: 05:41:12
(UTC-04:00)

SR - Pass Details

Date: 10 August 2021
Orbit: 581 x 874 km, 66.7° (Epoch: 24 September)

Event Time Altitude Azimuth Distance (km) Brightness Sun altitude
Rises 14:24:09 0° 325° (NW) 3,016 ? 61.7°
Reaches altitude 10° 14:26:35 10° 320° (NW) 2,054 ? 61.4°
Maximum altitude 14:31:00 47° 247° (WSW) 817 ? 60.9°
Drops below altitude 10° 14:35:08 10° 173° (S) 1,922 ? 60.4°
Sets 14:37:21 0° 167° (SSE) 2,800 ? 60.1°
